KOREASAT 7

Last updated on Thu Nov 21 2024 00:02:43 GMT+0000 (Coordinated Universal Time)

1 42691U 17023A 24325.51408103 -.00000361 00000+0 00000+0 0 9992 2 42691 0.0275 347.6270 0001625 238.1339 135.2401 1.00270751 27615
UTC large
Height (km)
Speed (km/s)
/
Latitude / Longitude
Inclination (degrees)
Orbital Period (minutes)
Azimuth
Elevation
Range (km)
Doppler Factor

Next 0 passes for location: London (51.5072 / 0.1276)

Sorry there are no passes over London.